SCP
0 0 0 0 0 0 0 0 0 0 0 0 0 0 0 1 1 1 1 2 2 2 1 1 1 1 1 1 1 1 1 1 0 0 0 0 0 0 0 0 0 0 0 0
0 0 0 0 0 0 0 0 0 0 0 0 0 0 0 1 1 1 1 2 2 1 1 1 1 1 1 1 0 0 0 0 0 0 0 0 0 0 0 0 0 0 0 0
0 0 0 0 0 0 0 0 0 0 0 0 0 0 0 0 1 1 1 1 1 1 1 1 1 1 0 0 0 0 0 0 0 0 0 0 0 0 0 0 0 0 0 0
0 0 0 0 0 0 0 0 0 0 0 0 0 0 0 0 1 1 1 1 1 1 1 1 0 0 0 0 0 0 0 0 0 0 0 0 0 0 0 0 0 0 0 0
0 0 0 0 0 0 0 0 0 0 0 0 0 0 0 0 0 1 1 1 1 1 1 0 0 0 0 0 0 0 0 0 0 0 0 0 0 0 0 0 0 0 0 0
0 0 0 0 0 0 0 0 0 0 0 0 0 0 0 0 0 0 1 1 1 0 0 0 0 0 0 0 0 0 0 0 0 0 0 0 0 0 0 0 0 0 0 0
0 0 0 0 0 0 0 0 0 0 0 0 0 0 0 0 0 0 0 0 0 0 0 0 0 0 0 0 0 0 0 0 0 0 0 0 0 0 0 0 0 0 0 0
0 0 0 0 0 0 0 0 0 0 0 0 0 0 0 0 0 0 0 0 0 0 0 0 0 0 0 0 0 0 0 0 0 0 0 0 0 0 0 0 0 0 0 0
0 0 0 0 0 0 0 0 0 0 0 0 0 0 0 0 0 0 0 0 0 0 0 0 0 0 0 0 0 0 0 0 0 0 0 0 0 0 0 0 0 0 0 0
0 0 0 0 0 0 0 0 0 0 0 0 0 0 0 0 0 0 0 0 0 0 0 0 0 0 0 0 0 0 0 0 0 0 0 0 0 0 0 0 0 0 0 0
0 0 0 0 0 0 0 0 0 0 0 0 0 0 0 0 0 0 0 0 0 0 0 0 0 0 0 0 0 0 0 0 0 0 0 0 0 0 0 0 0 0 0 0
0 0 0 0 0 0 0 0 0 0 0 0 0 0 0 0 0 0 0 0 0 0 0 0 0 0 0 0 0 0 0 0 0 0 0 0 0 0 0 0 0 0 0 0
0 0 0 0 0 0 0 0 0 0 0 0 0 0 0 0 0 0 0 0 0 0 0 0 0 0 0 0 0 0 0 0 0 0 0 0 0 0 0 0 0 0 0 0
0 0 0 0 0 0 0 0 0 0 0 0 0 0 0 0 0 0 0 0 0 0 0 0 0 0 0 0 0 0 0 0 0 0 0 0 0 0 0 0 0 0 0 0
0 0 0 0 0 0 0 0 0 0 0 0 0 0 0 0 0 0 0 0 0 0 0 0 0 0 0 0 0 0 0 0 0 0 0 0 0 0 0 0 0 0 0 0
0 0 0 0 0 0 0 0 0 0 0 0 0 0 0 0 0 0 0 0 0 0 0 0 0 0 0 0 0 0 0 0 0 0 0 0 0 0 0 0 0 0 0 0
0 0 0 0 0 0 0 0 0 0 0 0 0 0 0 0 0 0 0 0 0 0 0 0 0 0 0 0 0 0 0 0 0 0 0 0 0 0 0 0 0 0 0 0
0 0 0 0 0 0 0 0 0 0 0 0 0 0 0 0 0 0 0 0 0 0 0 0 0 0 0 0 0 0 1 1 1 0 0 0 0 0 0 0 0 0 0 0
0 0 0 0 0 0 0 0 0 0 0 0 0 0 0 0 0 0 0 0 0 0 0 0 0 0 0 0 0 0 1 1 1 1 0 0 0 0 0 0 0 0 0 0
0 0 0 0 0 0 0 0 0 0 0 0 0 0 0 0 0 0 0 0 0 0 1 1 0 0 0 0 0 0 1 1 1 1 1 0 0 0 0 0 0 0 0 0
0 0 0 0 0 0 0 0 0 0 0 0 0 0 0 0 0 0 1 1 1 0 0 1 0 0 0 0 0 1 1 1 1 1 1 0 0 0 0 0 0 0 0 0
0 0 0 0 0 0 0 0 0 0 0 0 0 0 0 0 0 0 1 1 0 0 0 1 1 0 0 0 1 1 0 0 1 1 1 0 0 0 0 0 0 0 0 0
0 0 0 0 0 0 0 0 0 0 0 0 0 0 0 0 0 0 0 1 0 0 0 0 0 0 0 0 0 0 0 0 0 0 0 0 0 0 0 0 0 0 0 0
0 0 0 0 0 0 0 0 0 0 0 0 0 0 0 0 0 0 0 0 0 0 0 0 0 0 0 0 0 0 0 0 0 0 0 0 0 0 0 0 0 0 0 0
0 0 0 0 0 0 0 0 0 0 0 0 0 0 0 0 0 0 0 0 0 0 0 0 0 0 0 0 0 0 0 0 0 0 0 0 0 0 0 0 0 0 0 0
0 0 0 0 0 0 0 0 0 0 0 0 0 0 0 0 0 0 0 0 0 0 0 0 0 0 0 0 0 0 0 0 0 0 0 0 0 0 0 0 0 0 0 0
Wind_Speed
4 2 6 9 9 10 8 8 11 10 7 2 4 4 6 8 9 9 9 9 9 9 8 8 9 10 10 9 8 8 8 7 7 6 6 5 5 4 4 3 5 5 5 5
2 8 13 11 9 10 10 10 11 8 5 2 3 3 5 7 10 12 14 12 11 9 9 9 9 9 10 10 10 8 8 7 7 6 5 4 5 4 3 3 4 5 5 5
9 11 9 10 11 11 11 9 8 6 3 2 3 2 2 3 4 7 11 12 12 13 13 12 11 10 10 10 11 10 8 8 7 7 5 5 4 4 3 3 3 3 5 5
8 12 11 10 11 10 10 10 7 3 1 2 2 2 5 4 4 7 9 10 12 12 13 12 11 11 11 10 9 9 9 8 7 7 8 9 7 5 4 4 3 3 4 5
8 6 7 9 12 10 9 7 2 1 2 2 3 0 6 2 4 8 10 12 12 13 14 14 13 12 11 10 9 9 9 8 7 7 8 8 6 4 4 4 5 4 3 4
11 8 6 9 11 9 7 1 4 5 5 1 2 1 6 5 8 9 10 11 12 12 13 12 11 10 9 9 9 9 9 8 7 7 7 8 8 8 8 6 6 4 3 3
8 10 8 6 7 7 1 3 4 5 4 4 3 3 8 6 6 9 12 12 13 12 13 13 13 12 11 11 11 10 10 9 8 8 7 8 9 9 10 8 6 5 3 3
5 8 6 4 5 6 4 7 7 5 5 4 3 5 8 6 4 6 10 11 12 13 13 14 14 13 13 13 12 11 10 9 9 8 8 7 8 6 5 6 6 6 4 4
6 7 5 5 4 3 2 3 7 7 3 1 4 5 8 3 1 4 8 10 12 13 14 14 14 13 13 13 12 12 12 9 9 9 8 7 8 7 7 6 6 5 4 5
5 4 6 4 3 3 4 4 4 5 4 3 3 4 6 5 3 5 7 10 12 13 13 13 13 13 13 12 11 11 11 10 9 9 8 8 7 7 7 7 7 6 6 6
4 3 5 3 1 3 2 3 3 3 4 5 3 8 8 9 7 8 9 10 12 14 15 15 14 13 13 12 12 11 11 9 9 9 8 8 7 7 7 7 7 7 6 7
1 4 2 5 5 3 4 3 5 4 2 3 4 8 6 6 6 7 7 9 11 14 15 15 14 13 12 13 13 13 12 11 11 9 8 8 7 7 7 7 7 8 8 7
2 5 2 6 6 5 2 2 2 4 3 3 3 8 3 2 5 7 7 8 10 12 13 13 13 14 14 14 13 13 13 12 10 10 9 8 8 8 8 8 7 8 8 7
4 4 5 6 6 3 2 2 2 4 3 3 6 7 5 3 6 7 8 9 11 13 14 14 14 14 14 14 14 14 13 12 11 10 10 10 10 9 9 8 8 8 8 8
5 2 1 4 4 3 4 5 4 5 7 7 8 8 9 8 9 10 9 9 11 12 14 16 16 15 14 14 14 14 13 13 12 11 11 11 10 8 8 8 8 8 8 9
3 2 1 3 3 4 6 7 6 6 6 6 5 7 6 5 5 7 8 10 12 14 16 17 17 17 17 17 16 15 14 14 13 13 12 11 10 9 9 9 9 8 8 8
2 3 1 3 4 4 5 6 6 4 3 4 5 6 4 3 6 9 9 11 13 14 15 17 18 18 18 18 17 17 16 14 14 14 13 12 12 11 11 11 9 9 9 8
6 4 2 2 2 5 7 3 2 2 1 1 2 3 3 5 5 5 6 8 10 12 14 15 15 16 16 15 15 14 13 14 14 14 13 13 13 12 11 10 10 10 7 7
5 6 3 3 3 6 5 3 2 1 1 2 1 2 3 3 3 3 2 2 6 9 11 12 13 14 13 14 15 14 14 14 14 14 14 14 13 13 12 12 11 8 7 7
2 4 4 3 3 5 4 5 3 2 1 3 3 2 2 2 1 3 2 2 1 2 5 8 9 9 11 13 13 14 14 14 15 15 14 12 12 12 12 12 10 7 7 7
3 1 2 3 3 4 3 6 4 2 4 4 2 1 2 1 3 3 2 2 1 1 3 6 8 8 9 11 13 13 12 14 13 11 10 10 10 10 9 8 8 7 7 7
2 1 1 1 2 4 5 4 1 3 3 2 2 1 1 1 2 3 4 5 4 3 4 6 6 6 5 8 11 11 11 11 9 9 9 8 8 8 7 7 6 6 7 6
2 4 3 4 4 4 2 2 3 2 2 1 1 2 1 2 3 4 4 4 4 4 5 5 7 7 6 6 8 9 8 7 8 9 9 8 8 7 7 7 7 5 5 5
2 0 2 1 3 3 4 3 3 2 2 1 1 1 3 4 4 5 5 5 5 5 6 6 8 8 6 5 5 5 5 6 8 8 7 7 7 6 5 5 5 6 6 5
2 1 1 2 2 3 5 4 3 2 3 4 5 5 6 6 5 6 7 7 6 7 7 7 8 8 6 5 5 4 4 7 7 7 6 6 6 6 5 4 4 5 5 6
2 2 3 3 3 2 2 3 3 4 5 5 6 7 7 7 7 8 8 7 8 8 8 9 9 9 8 8 7 5 4 6 7 6 5 4 4 4 4 4 2 1 2 4
Wind_Direction
242 171 233 235 222 227 252 272 276 272 270 251 212 185 174 169 166 159 153 152 156 155 156 151 149 149 147 147 153 152 147 149 138 137 139 139 141 139 134 141 139 135 131 128
304 253 241 242 249 254 260 269 269 275 264 209 184 182 180 175 177 173 166 163 160 151 152 155 153 154 155 159 161 154 154 156 151 149 144 140 136 137 138 135 133 136 133 133
220 245 248 246 257 261 263 251 248 251 289 45 92 359 226 212 166 174 169 164 162 163 162 163 162 158 157 162 165 164 163 156 153 147 131 123 108 101 106 123 134 143 136 131
242 252 254 258 259 253 262 257 240 230 91 319 85 258 259 208 184 180 172 166 168 168 164 165 166 163 165 166 162 157 160 158 159 152 146 150 151 151 166 156 149 145 139 134
240 243 242 253 255 255 247 251 227 173 125 45 9 108 279 175 201 203 188 179 174 171 169 171 170 170 168 164 162 157 154 160 163 158 155 153 150 149 145 139 139 141 138 137
242 254 244 249 265 259 244 305 29 47 71 42 272 191 270 217 213 199 192 186 177 175 174 170 166 161 163 162 161 159 156 162 165 158 156 155 152 150 148 150 152 150 138 132
270 273 269 265 282 295 272 96 23 354 6 254 249 216 247 236 225 196 188 186 178 176 173 168 165 166 167 167 166 164 162 164 165 159 159 159 156 156 161 163 162 156 151 151
224 273 269 265 231 239 250 150 164 202 222 259 285 244 259 268 245 191 179 178 173 174 175 173 172 171 172 170 168 167 168 167 166 164 164 160 155 156 163 166 161 163 165 166
197 244 265 271 266 199 237 215 176 151 175 195 262 278 296 292 64 137 163 170 176 177 177 175 173 172 173 172 172 173 172 170 169 167 162 162 160 159 164 166 160 162 163 162
170 241 277 287 336 323 165 163 92 116 162 224 261 253 247 251 208 165 169 180 182 179 178 175 175 175 175 174 173 172 174 174 171 168 170 170 165 164 163 161 163 164 164 157
134 176 294 334 262 268 2 68 108 129 157 163 223 260 229 211 198 182 190 187 182 181 180 179 178 178 175 171 173 174 176 172 172 173 172 164 164 163 161 162 165 162 160 156
111 128 253 266 261 227 165 170 143 145 240 174 184 261 264 199 180 180 198 195 186 184 181 179 177 174 174 175 176 177 178 178 179 175 169 166 164 160 160 163 165 160 159 162
81 100 35 335 337 360 73 98 120 130 129 167 185 260 290 174 177 190 197 195 191 182 177 176 175 176 177 178 179 180 180 182 179 173 170 169 169 167 169 168 164 161 161 164
90 106 159 205 237 253 271 238 168 129 156 205 219 243 276 242 212 203 197 193 191 183 177 177 180 182 181 181 181 181 182 182 179 177 176 177 180 178 176 172 168 168 167 169
81 105 230 242 250 248 247 244 218 200 200 200 222 225 237 223 217 210 196 190 189 186 183 182 183 184 182 182 183 183 183 182 181 179 182 186 184 178 176 177 177 177 177 181
80 132 360 313 303 301 277 261 240 228 217 215 230 248 249 239 222 217 201 189 192 193 192 189 187 185 185 186 186 185 185 184 180 183 187 185 181 180 183 185 183 181 184 184
150 141 124 282 308 334 275 247 228 228 229 184 218 245 281 267 225 217 209 198 196 198 196 190 190 189 189 189 186 187 187 182 182 186 187 186 185 187 188 188 185 188 190 187
161 150 171 227 2 254 247 262 198 186 287 230 239 278 273 247 246 243 230 206 199 195 194 192 191 191 190 187 186 186 182 182 186 189 190 189 188 191 189 187 190 193 189 190
165 157 163 167 214 266 287 343 22 138 307 352 310 317 334 329 14 346 312 219 202 193 189 190 189 187 184 184 183 179 182 185 188 192 192 191 190 190 189 192 192 189 185 192
78 127 147 171 200 238 264 308 310 111 257 335 356 312 300 41 42 276 326 360 308 164 169 174 175 175 182 184 175 176 183 185 192 194 191 188 186 188 193 194 188 184 185 194
18 39 156 181 223 254 300 316 358 137 249 304 341 315 302 170 200 253 331 27 21 100 127 144 152 166 180 176 169 176 180 190 193 186 181 181 182 186 188 189 183 177 181 184
195 153 176 141 219 259 334 349 41 242 278 286 334 351 348 73 81 47 32 34 37 60 90 114 134 145 148 156 162 171 184 187 172 163 164 169 173 178 179 178 177 172 177 184
200 181 185 188 218 258 294 264 267 242 259 281 339 309 348 56 76 75 50 45 50 66 86 100 117 116 111 131 150 164 184 164 153 156 165 166 167 172 169 170 171 165 170 179
295 188 137 234 274 291 324 324 302 261 206 182 44 42 76 72 82 81 71 69 73 75 81 88 100 105 102 107 126 153 153 145 149 157 162 157 157 156 154 161 168 168 175 180
250 182 166 236 271 327 331 335 336 4 79 78 62 61 69 72 74 79 78 72 75 76 79 86 96 99 94 91 88 89 115 129 135 142 146 147 149 152 154 158 167 173 187 187
262 200 189 220 223 184 279 339 31 64 70 69 74 70 63 76 82 81 76 74 76 77 79 81 82 82 79 77 70 61 81 117 127 128 133 139 140 140 141 140 125 139 186 190